Tracking 19795 objects as of 17-Jul-2019
HD Live streaming from Space Station
objects crossing your sky now

SL-24 DEB

Track SL-24 DEB now!
10-day predictions


NORAD ID: 40048
Int'l Code: 2014-033AQ
Perigee: 430.1 km
Apogee: 450.3 km
Inclination: 98.0 °
Period: 93.2 minutes
Semi major axis: 6811 km
RCS: Unknown
Launch date: June 19, 2014
Source: Commonwealth of Independent States (former USSR) (CIS)
Launch site: Orenburg, Russia (OREN)

Note: This is SATELLITE DEBRIS
aabbcc
Your satellite tracking list
Your tracking list is empty




NASA's NSSDC Master Catalog

Two Line Element Set (TLE):
1 40048U 14033AQ  19197.58108012  .00008716  00000-0  18988-3 0  9998
2 40048  98.0089 235.0950 0014816  70.8322 289.4527 15.44440074281896
Source of the keplerian elements: AFSPC